TimeEST,TemperatureF,Dew PointF,Humidity,Sea Level PressureIn,VisibilityMPH,Wind Direction,Wind SpeedMPH,Gust SpeedMPH,PrecipitationIn,Events,Conditions,WindDirDegrees,DateUTC
12:53 AM,12.0,-2.0,53,30.35,10.0,West,6.9,-,N/A,,Clear,260,2013-01-25 05:53:00
1:53 AM,10.9,-0.9,59,30.37,10.0,South,3.5,-,N/A,,Clear,180,2013-01-25 06:53:00
2:53 AM,12.0,-0.0,59,30.37,10.0,Variable,6.9,-,N/A,,Clear,0,2013-01-25 07:53:00
3:53 AM,10.0,-0.9,61,30.36,10.0,Calm,Calm,-,N/A,,Clear,0,2013-01-25 08:53:00
4:53 AM,6.1,-0.0,76,30.38,10.0,Calm,Calm,-,N/A,,Clear,0,2013-01-25 09:53:00
5:53 AM,8.1,-0.0,70,30.37,10.0,Calm,Calm,-,N/A,,Clear,0,2013-01-25 10:53:00
6:53 AM,7.0,1.0,77,30.39,10.0,Calm,Calm,-,N/A,,Clear,0,2013-01-25 11:53:00
7:53 AM,8.1,3.0,80,30.39,10.0,Calm,Calm,-,N/A,,Clear,0,2013-01-25 12:53:00
8:53 AM,12.0,1.0,61,30.39,10.0,North,6.9,-,N/A,,Clear,10,2013-01-25 13:53:00
9:53 AM,14.0,1.0,56,30.39,10.0,Calm,Calm,-,N/A,,Clear,0,2013-01-25 14:53:00
10:53 AM,16.0,1.0,52,30.37,10.0,Calm,Calm,-,N/A,,Clear,0,2013-01-25 15:53:00
11:53 AM,18.0,-0.0,45,30.32,10.0,Calm,Calm,-,N/A,,Clear,0,2013-01-25 16:53:00
12:53 PM,19.9,1.0,44,30.27,10.0,Calm,Calm,-,N/A,,Clear,0,2013-01-25 17:53:00
1:53 PM,21.0,-0.0,40,30.24,10.0,Calm,Calm,-,N/A,,Overcast,0,2013-01-25 18:53:00
2:53 PM,21.9,-0.9,37,30.20,10.0,Calm,Calm,-,N/A,,Clear,0,2013-01-25 19:53:00
3:53 PM,21.9,-0.9,37,30.19,10.0,Calm,Calm,-,N/A,,Mostly Cloudy,0,2013-01-25 20:53:00
4:53 PM,21.9,-0.9,37,30.16,10.0,ENE,3.5,-,N/A,,Overcast,70,2013-01-25 21:53:00
5:53 PM,21.9,-0.0,38,30.14,10.0,Calm,Calm,-,N/A,,Overcast,0,2013-01-25 22:53:00
6:53 PM,19.9,10.9,68,30.12,5.0,NNE,3.5,-,0.00,Snow,Light Snow,20,2013-01-25 23:53:00
7:53 PM,19.9,12.9,74,30.10,5.0,Calm,Calm,-,0.00,,Haze,0,2013-01-26 00:53:00
8:06 PM,19.4,12.2,74,30.10,1.8,Calm,Calm,-,0.00,Snow,Light Snow,0,2013-01-26 01:06:00
8:24 PM,19.4,14.0,80,30.09,2.0,Calm,Calm,-,0.00,Snow,Light Snow,0,2013-01-26 01:24:00
8:53 PM,19.0,14.0,81,30.09,1.8,Calm,Calm,-,0.00,Snow,Light Snow,0,2013-01-26 01:53:00
8:58 PM,19.4,14.0,80,30.08,2.0,Calm,Calm,-,0.00,Snow,Light Snow,0,2013-01-26 01:58:00
9:53 PM,19.0,14.0,81,30.07,3.0,Calm,Calm,-,0.00,Snow,Light Snow,0,2013-01-26 02:53:00
10:53 PM,18.0,14.0,84,30.07,8.0,Calm,Calm,-,0.00,,Overcast,0,2013-01-26 03:53:00
11:02 PM,17.6,12.2,79,30.07,7.0,Calm,Calm,-,N/A,,Overcast,0,2013-01-26 04:02:00
11:53 PM,17.1,12.0,81,30.06,5.0,Calm,Calm,-,N/A,,Haze,0,2013-01-26 04:53:00